GW2732 Weather Reports


time (UTC)temp
C
wind
direction
speed
KPH
gust
KPH
rain 1hr
cm
rain 24hr
cm
rain mn
cm
humidity
%
barometer
mb
20260506200052 21 55 0.0 8.0 0.00 0.00 0.00 56 1020.6
20260506194546 21 31 1.6 9.7 0.00 0.00 0.00 59 1020.8
20260506193043 21 360 0.0 6.4 0.00 0.00 0.00 62 1020.9
20260506191540 21 292 1.6 6.4 0.00 0.00 0.00 58 1020.9
20260506190038 21 285 0.0 6.4 0.00 0.00 0.00 59 1021.1
20260506184549 21 305 0.0 8.0 0.00 0.00 0.00 59 1021.3
20260506183052 20 296 0.0 9.7 0.00 0.00 0.00 60 1021.4
20260506181551 20 333 0.0 11.3 0.00 0.00 0.00 64 1021.4
20260506180044 20 240 0.0 0.0 0.00 0.00 0.00 64 1021.3
20260506174547 17 156 3.2 8.0 0.00 0.00 0.00 68 1021.3
20260506173006 19 314 0.0 6.4 0.00 0.00 0.00 67 1021.2
20260506171528 19 40 0.0 3.2 0.00 0.00 0.00 65 1021.4
20260506170041 17 355 0.0 6.4 0.00 0.00 0.00 70 1021.4
20260506164543 17 246 0.0 4.8 0.00 0.00 0.00 72 1021.3
20260506163037 16 271 1.6 9.7 0.00 0.00 0.00 72 1021.5
20260506161531 16 265 0.0 1.6 0.00 0.00 0.00 72 1021.6
20260506160029 16 267 1.6 6.4 0.00 0.00 0.00 72 1021.6
20260506154529 16 150 0.0 3.2 0.00 0.00 0.00 75 1021.6
20260506153030 15 158 1.6 4.8 0.00 0.00 0.00 77 1021.7
20260506151532 14 135 4.8 11.3 0.00 0.00 0.00 77 1021.5
20260506150024 13 170 0.0 4.8 0.00 0.00 0.00 79 1021.5
20260506144525 13 360 3.2 6.4 0.00 0.00 0.00 80 1021.4
20260506143028 13 217 0.0 3.2 0.00 0.00 0.00 82 1021.5
20260506141536 12 218 0.0 3.2 0.00 0.00 0.00 83 1021.3
20260506140105 12 259 0.0 1.6 0.00 0.00 0.00 83 1021.1
20260506134505 12 259 0.0 0.0 0.00 0.00 0.00 83 1020.9
20260506133009 12 259 0.0 0.0 0.00 0.00 0.00 83 1020.9
20260506131514 12 259 0.0 0.0 0.00 0.00 0.00 82 1020.8
20260506130012 12 259 0.0 0.0 0.00 0.00 0.00 82 1020.7
20260506124511 12 259 0.0 0.0 0.00 0.00 0.00 82 1020.6
20260506123011 12 259 0.0 0.0 0.00 0.00 0.00 81 1020.6
20260506121511 12 259 0.0 0.0 0.00 0.00 0.00 81 1020.6
20260506120018 12 259 0.0 0.0 0.00 0.00 0.00 80 1020.5
20260506114519 12 259 0.0 0.0 0.00 0.00 0.00 80 1020.4
20260506113024 12 259 0.0 0.0 0.00 0.00 0.00 80 1020.3
20260506111516 12 259 0.0 3.2 0.00 0.00 0.00 80 1020.1
20260506110016 12 259 0.0 3.2 0.00 0.00 0.00 81 1020.1
20260506104518 12 258 0.0 0.0 0.00 0.00 0.00 80 1020.1
20260506103030 12 262 0.0 1.6 0.00 0.00 0.00 80 1020.1
20260506101536 12 262 0.0 0.0 0.00 0.00 0.00 80 1020.0
20260506100048 12 262 0.0 4.8 0.00 0.00 0.00 79 1019.9
20260506094600 12 257 0.0 4.8 0.00 0.03 0.00 79 1019.9
20260506093102 12 281 0.0 3.2 0.00 0.03 0.00 80 1019.8
20260506091505 12 282 0.0 3.2 0.00 0.03 0.00 80 1020.0
20260506090005 12 282 0.0 0.0 0.00 0.08 0.00 80 1020.1
20260506084605 12 277 0.0 3.2 0.00 0.08 0.00 80 1020.1
20260506083006 12 265 0.0 0.0 0.00 0.08 0.00 81 1020.0
20260506081527 12 265 0.0 0.0 0.00 0.08 0.00 80 1020.0
20260506073037 12 266 0.0 6.4 0.00 0.20 0.00 79 1019.6
20260506071540 12 236 0.0 6.4 0.00 0.20 0.00 79 1019.6
20260506061513 12 242 3.2 8.0 0.00 0.25 0.20 79 1019.0
20260506044533 13 360 4.8 9.7 0.00 0.46 0.20 81 1018.3
20260506043034 13 360 3.2 14.5 0.00 0.46 0.20 81 1018.2
20260506041537 13 360 6.4 16.1 0.00 0.46 0.20 80 1018.0
20260506040041 13 360 1.6 11.3 0.00 0.46 0.20 80 1018.0
20260506034535 13 227 4.8 12.9 0.00 0.46 0.20 79 1017.9
20260506033023 13 234 3.2 12.9 0.00 0.46 0.20 78 1017.6
20260506031525 13 261 1.6 8.0 0.00 0.46 0.20 78 1017.4
20260506030037 14 273 0.0 11.3 0.00 0.46 0.20 77 1017.2
20260506024553 14 285 3.2 11.3 0.00 0.46 0.20 76 1017.1
20260506023033 14 262 3.2 9.7 0.00 0.46 0.20 75 1016.9
20260506021525 15 360 4.8 9.7 0.00 0.46 0.20 74 1016.9
20260506020017 15 360 1.6 6.4 0.00 0.46 0.20 73 1016.7
20260506014517 15 360 3.2 9.7 0.00 0.46 0.20 72 1016.5
20260506013032 15 247 1.6 14.5 0.00 0.46 0.20 73 1016.4
20260506011531 16 276 6.4 14.5 0.00 0.46 0.20 72 1016.4
20260506010042 16 227 4.8 12.9 0.00 0.46 0.20 73 1016.3
20260506004554 16 281 1.6 11.3 0.00 0.46 0.20 73 1016.2
20260506003053 16 259 3.2 11.3 0.00 0.46 0.20 72 1016.2
20260506001555 16 239 4.8 12.9 0.00 0.46 0.20 72 1016.1
20260506000006 16 242 4.8 12.9 0.00 0.46 0.20 73 1016.1
20260505234517 16 261 3.2 11.3 0.00 0.46 0.20 73 1016.1
20260505233020 16 279 3.2 11.3 0.00 0.46 0.20 72 1016.1
20260505231521 16 273 1.6 11.3 0.00 0.46 0.20 72 1016.2
20260505230049 16 236 3.2 8.0 0.00 0.46 0.20 72 1016.2
20260505224546 16 284 0.0 6.4 0.00 0.46 0.20 72 1016.1
20260505223056 16 252 1.6 6.4 0.00 0.46 0.20 72 1016.2
20260505221548 16 294 1.6 8.0 0.00 0.46 0.20 72 1016.2
20260505220050 16 209 0.0 11.3 0.00 0.46 0.20 73 1016.3
20260505214548 16 257 1.6 12.9 0.00 0.46 0.20 71 1016.4
20260505213101 16 289 0.0 3.2 0.00 0.46 0.20 70 1016.4
20260505211553 16 289 0.0 8.0 0.00 0.46 0.20 69 1016.5
20260505210056 16 291 3.2 12.9 0.00 0.46 0.20 70 1016.4
20260505204507 16 260 4.8 14.5 0.00 0.46 0.20 70 1016.6
20260505203027 16 281 4.8 17.7 0.00 0.46 0.20 70 1016.6